Regional Weather Roundup
Issued by NWS

Home | Current Version | Previous Version | Text Only | Print | Product List | Glossary Off
Versions: 1 2 3 4 5 6 7 8 9 10 11 12 13 14 15 16 17 18 19 20 21 22 23 24 25 26 27 28 29 30 31 32 33 34 35 36 37 38 39 40 41 42 43 44 45 46 47 48 49 50

000
ASUS43 KBIS 242220
RWRND

NORTH DAKOTA REGIONAL WEATHER ROUNDUP
NATIONAL WEATHER SERVICE BISMARCK ND
400 PM CST WED DEC 24 2014

NOTE: "FAIR" INDICATES FEW OR NO CLOUDS BELOW 12,000 FEET WITH NO
SIGNIFICANT WEATHER AND/OR OBSTRUCTIONS TO VISIBILITY.


NDZ001>003-009>011-017-242300-
NORTHWEST NORTH DAKOTA

CITY           SKY/WX    TMP DP  RH WIND       PRES   REMARKS
WILLISTON      MOCLDY    35  28  75 W8        29.47R
MINOT          MOCLDY    34  29  82 W10       29.43R
MINOT AFB      MOCLDY    32  32  99 W9        29.42S
$$

NDZ018>021-031>035-040>046-242300-
SOUTHWEST NORTH DAKOTA

CITY           SKY/WX    TMP DP  RH WIND       PRES   REMARKS
BISMARCK       LGT RAIN  33  25  72 S6        29.48F
DICKINSON      CLOUDY    36  30  79 W13       29.44S
GARRISON         N/A     35  30  82 W9        29.44S
HETTINGER ARPT CLOUDY    36  28  73 W3        29.48F
$$

NDZ004>008-012>016-024-026-027-054-242300-
NORTHEAST NORTH DAKOTA

CITY           SKY/WX    TMP DP  RH WIND       PRES   REMARKS
GRAND FORKS    CLOUDY    27  25  92 S15       29.54F FOG     WCI  15
GRND FRKS AFB  CLOUDY    28  28 100 S10       29.54S WCI  18
DEVILS LAKE    CLOUDY    30  27  86 SW12      29.45S
$$

NDZ022-023-025-028>030-036>039-047>053-242300-
SOUTHEAST NORTH DAKOTA

CITY           SKY/WX    TMP DP  RH WIND       PRES   REMARKS
FARGO          CLOUDY    27  25  92 S15       29.59F FOG     WCI  15
JAMESTOWN      CLOUDY    29  26  89 S17       29.49F WCI  17
$$



USA.gov is the U.S. government's official web portal to all federal, state and local government web resources and services.